Location: Montreal
(45.5087°N, 73.5540°W)
Time: 03:00:39
(UTC-04:00)

Envisat - Visible Passes

Search period start: 18 September 2021 00:00
Search period end: 28 September 2021 00:00
Orbit: 764 x 766 km, 98.2° (Epoch: 17 September)

Date Brightness Start Highest point End Pass type
(mag) Time Alt. Az. Time Alt. Az. Time Alt. Az.
18 Sep 3.5 05:59:50 10° NNE 06:04:55 66° E 06:09:58 10° S visible
19 Sep 5.0 05:23:24 10° NNE 05:27:54 31° E 05:32:23 10° SSE visible
20 Sep 5.9 04:47:51 10° NE 04:50:41 15° E 04:53:29 10° ESE visible
21 Sep 3.9 05:48:24 10° NNE 05:53:22 52° E 05:58:20 10° S visible
22 Sep 5.4 05:12:08 10° NE 05:16:18 25° E 05:20:26 10° SSE visible
23 Sep 6.2 04:37:21 10° ENE 04:39:01 11° E 04:40:40 10° ESE visible
24 Sep 4.4 05:37:00 10° NNE 05:41:49 42° E 05:46:37 10° SSE visible
25 Sep 5.7 05:00:58 10° NE 05:04:41 20° E 05:08:22 10° SE visible
26 Sep 3.4 06:02:08 10° NNE 06:07:14 71° ESE 06:12:18 10° S visible
27 Sep 4.8 05:25:39 10° NNE 05:30:15 33° E 05:34:48 10° SSE visible
